Tracking 27188 objects as of 1-Apr-2023
HD Live streaming from Space Station
objects crossing your sky now

STARLINK-5173

Track STARLINK-5173 now!
10-day predictions
STARLINK-5173 is classified as:


NORAD ID: 54059
Int'l Code: 2022-136J
Perigee: 546.0 km
Apogee: 547.8 km
Inclination: 53.2 °
Period: 95.4 minutes
Semi major axis: 6917 km
RCS: Unknown
Launch date: October 20, 2022
Source: United States (US)
Launch site: AIR FORCE EASTERN TEST RANGE (AFETR)
Your satellite tracking list
Your tracking list is empty




NASA's NSSDC Master Catalog

Two Line Element Set (TLE):
1 54059U 22136J   23091.60299287  .00006936  00000-0  45344-3 0  9992
2 54059  53.2149 121.4412 0001284 106.6244 253.4889 15.08841700 25327
Source of the keplerian elements: AFSPC